Location: Hokitika
(42.7170°S, 170.9670°E)
Time: 12:10:18
(UTC+13:00)

ISS - Pass Details

Date: 01 February 2019
Orbit: 403 x 411 km, 51.6° (Epoch: 17 February)

Event Time Altitude Azimuth Distance (km) Brightness Sun altitude
Exits shadow 05:20:22 24° 303° (WNW) 919 -2.7 -12.9°
Maximum altitude 05:22:17 88° 215° (SW) 423 -3.8 -12.6°
Drops below altitude 10° 05:25:39 10° 124° (SE) 1,499 0.6 -12.1°
Sets 05:27:45 0° 123° (ESE) 2,365 2.2 -11.8°
